Regional Weather Roundup
Issued by NWS

Home | Current Version | Previous Version | Graphics & Text | Print | Product List | Glossary On
Versions: 1 2 3 4 5 6 7 8 9 10 11 12 13 14 15 16 17 18 19 20 21 22 23 24 25 26 27
000
ASUS43 KDMX 242307
RWRIA

WEATHER ROUNDUP FOR IOWA
NATIONAL WEATHER SERVICE DES MOINES IA
600 PM CDT THU APR 24 2014

NOTE: "FAIR" INDICATES FEW OR NO CLOUDS BELOW 12,000 FEET WITH NO
SIGNIFICANT WEATHER AND/OR OBSTRUCTIONS TO VISIBILITY.

* - THESE STATIONS ARE NOT NWS STATIONS...THUS NOT UNDER NWS
QUALITY CONTROL.  THEY ALSO DO NOT REPORT WEATHER SUCH
AS PRECIPITATION OR FOG.

IAZ001>003-012>014-020>022-031>034-043>046-250000-
   NORTHWEST IOWA

CITY           SKY/WX    TMP DP  RH WIND       PRES   REMARKS
CARROLL *      SUNNY     57  45  62 N16G25    29.71S
CHEROKEE *     MOSUNNY   61  41  48 N9        29.71S
DENISON *      SUNNY     59  45  58 N10G16    29.71S
LE MARS *        N/A     63  43  48 NE9       29.71S
ORANGE CITY *  SUNNY     63  36  36 N8        29.71R
SHELDON *      SUNNY     61  37  41 N13       29.70R
SIOUX CITY     MOSUNNY   67  39  35 NE8       29.71S
SPENCER        PTSUNNY   59  42  53 N13       29.72S
STORM LAKE *   SUNNY     57  46  67 N13       29.72S
$$

IAZ055>058-069>071-079>083-090>094-250000-
   SOUTHWEST IOWA

CITY           SKY/WX    TMP DP  RH WIND       PRES   REMARKS
ATLANTIC *     SUNNY     57  45  62 N14G22    29.72R
AUDUBON *      SUNNY     57  45  62 N14G21    29.73R
CLARINDA *     SUNNY     59  46  63 N17G23    29.74S
COUNCIL BLFS * SUNNY     61  43  51 N12G17    29.73R
CRESTON *      SUNNY     54  48  82 NW17G23   29.72R
HARLAN  *      SUNNY     59  46  63 N12G20    29.76R
LAMONI         CLOUDY    52  47  83 N10       29.69R
RED OAK *      SUNNY     59  46  63 N14       29.74R
SHENANDOAH *   SUNNY     61  46  59 N14       29.75R
$$

IAZ047>049-059>061-072>074-084-250000-
   CENTRAL IOWA

CITY           SKY/WX    TMP DP  RH WIND       PRES   REMARKS
AMES           CLOUDY    53  46  77 N16       29.67F
ANKENY *       SUNNY     52  46  82 NW12G18   29.68R
CHARITON *     DRIZZLE   52  48  87 N12       29.68R
DES MOINES     CLOUDY    53  46  77 N10       29.69R
GRINNELL*      RAIN      50  48  93 N8        29.67R
KNOXVILLE *    LGT RAIN  52  48  87 N7        29.67R
MARSHALLTOWN   CLOUDY    51  47  86 NW16      29.67R
NEWTON *       CLOUDY    50  48  93 N15G23    29.68R
PELLA *        RAIN      52  50  93 N9        29.69R
PERRY *          N/A     55  45  67 N17       29.69F
$$

IAZ004>006-015-016-023>025-035-036-250000-
   NORTH CENTRAL IOWA

CITY           SKY/WX    TMP DP  RH WIND       PRES   REMARKS
ALGONA *       MOSUNNY   54  45  71 NW16      29.72R
CLARION *      SUNNY     52  45  76 NW16G22   29.69F
ESTHERVILLE    PTSUNNY   54  44  69 NW16      29.71S
FORT DODGE *   CLOUDY    55  45  67 NW10G18   29.71F
MASON CITY     CLOUDY    49  43  80 NW16      29.70R
FOREST CITY *  CLOUDY    50  43  76 NW13      29.70R
IOWA FALLS *   PTSUNNY   50  45  81 NW16      29.69S
$$

IAZ007>011-017>019-026>030-037>042-050>054-066-250000-
   NORTHEAST IOWA

CITY           SKY/WX    TMP DP  RH WIND       PRES   REMARKS
CEDAR RAPIDS   RAIN      52  51  97 NW3       29.64F FOG
CHARLES CITY * PTSUNNY   50  45  81 NW12      29.68R
CLINTON *      CLOUDY    57  50  77 SE6       29.67F
DECORAH *      CLOUDY    48  48 100 VRB5      29.67R FOG
DUBUQUE        CLOUDY    53  48  83 S13       29.64S
MONTICELLO *   LGT RAIN  52  52 100 NW8       29.67R
OELWEIN *      CLOUDY   N/A N/A N/A W5        29.67S FOG
WATERLOO       CLOUDY    50  47  89 NW13      29.66F
$$

IAZ064-065-067-068-078-250000-
   EAST CENTRAL IOWA

CITY           SKY/WX    TMP DP  RH WIND       PRES   REMARKS
DAVENPORT      LGT RAIN  57  51  80 S5        29.66F
IOWA CITY      RAIN      53  53 100 W5        29.67F FOG
MT. PLEASANT * RAIN      54  54 100 W7        29.66R
MUSCATINE *    LGT RAIN  55  52  88 CALM      29.65R
QUAD CITIES    LGT RAIN  57  54  89 CALM      29.64F
$$

IAZ062-063-075>077-085>089-095>099-250000-
   SOUTHEAST IOWA

CITY           SKY/WX    TMP DP  RH WIND       PRES   REMARKS
BURLINGTON     LGT RAIN  55  53  93 N5        29.63R
FAIRFIELD *    LGT RAIN  54  52  94 CALM      29.66R
FORT MADISON * LGT RAIN  55  55 100 W5        29.65R
KEOKUK *       LGT RAIN  55  55 100 CALM      29.64R
OSKALOOSA *    RAIN      52  52 100 NW7       29.66F
CENTERVILLE *  RAIN      50  50 100 NW8       29.68R
OTTUMWA        RAIN      52  51  97 NW8       29.65S FOG
WASHINGTON *   LGT RAIN  54  54 100 CALM      29.66R
$$

ABBREVIATIONS USED IN REMARKS
   TC - TEMPERATURES IN CELSIUS
  WCI - WIND CHILL INDEX
   HX - HEAT INDEX
  VSB - VISIBILITY
$$




USA.gov is the U.S. government's official web portal to all federal, state and local government web resources and services.